Hourly Data Report for October 10, 2013

All times are specified in Local Standard Time (LST). Add 1 hour to adjust for Daylight Saving Time where and when it is observed.

GJOA HAVEN A
NUNAVUT

68°38'08.000" N
95°51'01.000" W
46.90 m
2302337
71597
YHK

Download Data

Hourly Data (October 2013)
Hourly Data Report for October 10, 2013
Temp Definition
°C
Dew Point Temp Definition
°C
Rel Hum Definition
%
Wind Dir Definition
10's deg

Wind Spd Definition
km/h
Visibility Definition
km
Stn Press Definition
kPa
Hmdx Definition


Wind Chill Definition


Weather Definition


TIME
00:00 Legend Double Dagger -4.1 -5.5 90 17 22 12.9 100.72   -11 LegendNANA
01:00 Legend Double Dagger -3.8 -5.5 88 17 21 14.5 100.70   -10 LegendNANA
02:00 Legend Double Dagger -3.6 -4.8 91 17 24 16.1 100.69   -10 LegendNANA
03:00 Legend Double Dagger -3.6 -4.4 94 17 24 8.1 100.68   -10 LegendNANA
04:00 Legend Double Dagger -3.3 -5.0 88 17 28 16.1 100.65   -11 LegendNANA
05:00 Legend Double Dagger -3.7 -5.3 89 16 26 16.1 100.63   -11 LegendNANA
06:00 Legend Double Dagger -3.5 -4.9 90 17 21 16.1 100.63   -10 LegendNANA
07:00 Legend Double Dagger -3.0 -4.6 89 15 30 16.1 100.59   -10 LegendNANA
08:00 Legend Double Dagger -2.7 -4.4 88 15 28 16.1 100.56   -10 LegendNANA
09:00 Legend Double Dagger -2.5 -4.2 88 15 28 16.1 100.53   -10 LegendNANA
10:00 Legend Double Dagger -2.3 -4.0 88 15 30 16.1 100.51   -9 LegendNANA
11:00 Legend Double Dagger -2.0 -3.9 87 14 33 16.1 100.45   -9 LegendNANA
12:00 Legend Double Dagger -1.6 -3.5 87 13 37 16.1 100.39   -9 LegendNANA
13:00 Legend Double Dagger -1.4 -2.5 92 14 37 4.0 100.33   -9 LegendNANA
14:00 Legend Double Dagger -1.5 -1.9 97 13 37 2.4 100.26   -9 LegendNANA
15:00 Legend Double Dagger -1.1 -1.4 98 14 45 2.0 100.16   -9 LegendNANA
16:00 Legend Double Dagger -0.7 -1.1 97 14 46 2.4 100.07   -9 LegendNANA
17:00 Legend Double Dagger -0.5 -0.9 97 15 41 2.0 100.01   -8 LegendNANA
18:00 Legend Double Dagger -0.5 -0.8 98 14 42 2.0 99.93   -8 LegendNANA
19:00 Legend Double Dagger -0.3 -0.6 98 15 37 2.0 99.86   -8 LegendNANA
20:00 Legend Double Dagger -0.2 -0.5 98 15 39 2.0 99.79   -8 LegendNANA
21:00 Legend Double Dagger 0.0 -0.3 98 15 39 2.0 99.70   -7 LegendNANA
22:00 Legend Double Dagger 0.1 0.0 99 15 41 2.4 99.61     LegendNANA
23:00 Legend Double Dagger 0.2 0.1 99 15 45 2.4 99.56     LegendNANA

Notes on Data Quality.

Legend

  • E = Estimated
  • M = Missing
  • NA = Not Available
  • ‡ = Partner data that is not subject to review by the National Climate Archives
Date modified: